Hovedside
METAR-TAF:

METAR-TAF

Lufthavner :

Hasvik, Norge

Hasvik lufthavn

breddegrad: 70-29N, lengdegrad: 022-09E, høyde over havet: 10 m

Gjeldene værobservasjon

Denne rapporten ble laget for 43 minutter siden, klokken 21:50 UTC
Vind 2 kt fra skiftende retning
Temperatur 12°C
Luftfuktighet 94%
Trykk 1020 hPa
Sikt 10 km eller mer
ingen skyer under 1500 m og ingen bygeskyer

METAR: ENHK 242150Z VRB02KT CAVOK 12/11 Q1020

Tid: 00:33 (22:33 UTC)


TAF: fraværende

Værobservasjoner og værvarsel for over 4000 flyplasser (METAR- og TAF-rapporter).

Tilgjengelige stasjoner er representert av de røde og gule prikkene på kartet.

Hold musepekeren over prikken for å se navnet på stasjonen.

Klikk så for å se værobservasjoner og -varsler.

For å forandre kartet kan du klikke på den grønne knappen med svart kryss for å zoome inn, på den grønne knappen med strek for å zoome ut, eller på de grønne pilene for å se tilstøtende kart.


METAR-TAF: